sat.trackr.live / text

‹ back to catalog

YUNYAO-1 19

NORAD 58759 · 2024-009B

PAYLOAD ACTIVE UNKNOWN

§ Identity

Operator
Country
PRC
Launch date
2024-01-11
Launch site
YSLA
Launch vehicle
Mass (kg)
RCS (m²)

External: N2YO · Heavens-Above · Gunter

§ Orbital elements

Epoch: 2026-09-21T22:15:01.338912Z

Period
94.77 min
Inclination
49.9823°
Eccentricity
0.0005085
Mean motion
15.19470271 rev/d
Perigee alt
503.9 km
Apogee alt
510.9 km
Semi-major
6,885.6 km
B*
3.2040e-4
RAAN
53.9085°
Arg perigee
309.5175°
Mean anomaly
50.5328°
Rev number
14,937

§ Raw data

YUNYAO-1 191 58759U 24009B   26264.92709883  .00006583  00000+0  32040-3 0  99982 58759  49.9823  53.9085 0005085 309.5175  50.5328 15.19470271149373

JSON: /api/v1/satellites/58759 · /tle

For live sub-satellite position, see the globe view (requires WebGL).

§ Visibility from observer

Set your observer location to see the next 7 days of passes ≥ 10°. The values pass through the URL so the page stays shareable.

No JS? Fill the form by hand. The geolocation button needs JavaScript.